Showing default

OPS 6582 (TRANSIT 5B-5), 965

Orbit data source: Space-Track

OPS 6582 (TRANSIT 5B-5), 965 is a payload satellite owned by USN BuWeps (US) in LEO that was launched on Sun, 13 Dec 1964 UTC via a THOR ABLESTAR launch vehicle from the Air Force Western Test Range (AFWTR). Payload-class satellites include a variety of spacecraft equipped with specific instruments for various scientific and technological missions. These include communications satellites like Starlink; space stations such as the ISS; scientific satellites like the Hubble; Earth observation satellites from companies like Planet Labs, Umbra, and HawkEye 360; GPS; miniature CubeSats for education and research; and military/defense satellites.

Loading next visibility...
Identifier
965, 1964-083D
Orbit
LEO
Country
Flag of USUS
Related business
Manufacturer
NAFI
Mission
Spacecraft
Bus & Motor
TRANSIT 5, Unknown motor
Mass
~54 kg wet, ~54 kg dry
Launch date (UTC)
1964-12-13 (61 years ago)
Launch vehicle
THOR ABLESTAR
Launch site
Air Force Western Test Range (AFWTR)
Object type
Payload
Rocket body
Debris
Shape & HBR
Unknown
Radar Cross Section
Medium (>0.1 m² and <1 m²)

Expand to show TLE details & history
Last TLE update: 8 hours ago

TLE from 8 hours ago
0 OPS 6582 (TRANSIT 5B-5)
1 00965U 64083D   25310.20132873  .00000109  00000-0  13912-3 0  9997
2 00965  90.0705 201.3337 0040395 207.8151 272.2349 13.56984890 13373
Epoch: 2025-11-06T04:49Z
TLE epoch observation values (Epoch: 2025-11-06T04:49:54.802Z)
Latitude
60.50211°
Longitude
-96.68371°
Altitude
1,056.017 km
Speed
7.33 km/s
True Right ascension
01h 25m 49s
True Declination
60° 21' 37"
Sunlit
Object was in full shadow at epoch
Visualization orbit readout
Latitude
Unknown
Longitude
Unknown
Altitude
Unknown
Speed
Unknown
Apparent Right ascension
Unknown
Apparent Declination
Unknown
Sunlit
N/A
Visualization observer readout
Local Sidereal Time
08:57:49
Azimuth
Unknown
Elevation
Unknown
Doppler factor
Unknown
Orbital elements
Apogee altitude
1,073.69 km
Perigee altitude
1,013.729 km
Semi-major axis
7,421.847 km
Eccentricity
0.00404
Inclination
90.0705°
RAAN
201.3337°
Arg. of periapsis
207.8151°
True anomaly
271.77227°
Mean anomaly
272.2349°
Eccentric anomaly
272.0036°
Mean motion
3.3945 °/min
Orbital period
106.05 mins
BSTAR
0.00013912
Loading maneuver chart data...
Computing Atmospheric mass density...

Documentation

Showing up to 5 results
|